Pittsburgh, Pennsylvania
Traffic Map
Current Weather Conditions
Pittsburgh, Pennsylvania
Clear
Clear
23°
Feels Like: 23°
Wind Chill: 23° Ceiling: Unl
Heat Index: 23° Visibility: 10mi
Dew Point: 13° Wind: 12mph
Humidity: 55% Direction: 260° (W)
Pressure: 29.91in Gusts: 0mph
Raw Report DataKAGC 010453Z 26010KT 10SM CLR 23/13 A2991 RMK AO2 SLP120 T02280133 402940189
Traffic Incident Summary
Active as of:
Severity:
Category:
InformationThere was an issue retrieving the traffic information for this location. Please try a different location or try again shortly.
Advertisements
Track Severe Weather on mobile